M I D A S
Marine Information and Data Acquisition System
Tripno 1480 of the Zeeleeuw from 2008-05-06 12:10:16 to 2008-05-06 13:47:56
Back to CruiseResearch ActivitiesStationsMapUnderway DataData graphs

EquipmentUnitsComment
TimeDGPSUTC
LatitudeDGPSDM.mWGS84
LongitudeDGPSDM.mWGS84
TemperatureSBE03/SBE38deg celciusITS90
ConductivitySBE21S/mITS90
SalinitySBE21 Practical Salinity Units
ChlorophylAChelsea fluorimeterg/lCalibrated in Aceton
Missing or incorrect values are displayed as -999
Sea surface data collected by the RV Zeeleeuw from 2008-05-06 08:21:52 to 2008-05-06 14:00:11
Time Latitude Longitude Temperature Conductivity Salinity ChlorophylA
2008-05-06 08:22:57 51°13.689 2°55.897 20.3913 0.093354 0.477663 -1.801521
2008-05-06 08:23:57 51°13.714 2°55.794 20.466 0.093354 0.477732 -1.801521
2008-05-06 08:24:57 51°13.721 2°55.743 20.2648 0.093354 0.477771 -1.801521
2008-05-06 08:25:57 51°13.723 2°55.715 20.463 0.093251 0.477255 -1.766697
2008-05-06 08:26:57 51°13.757 2°55.694 20.387 0.093354 0.477848 -1.801521
2008-05-06 08:27:57 51°13.798 2°55.657 20.4052 0.093251 0.47734 -1.766697
2008-05-06 08:28:57 51°13.85 2°55.635 20.3635 0.093251 0.477402 -1.766697
2008-05-06 08:29:57 51°13.905 2°55.64 20.4118 0.093251 0.477425 -1.766697
2008-05-06 08:30:57 51°13.935 2°55.641 20.439 0.093251 0.477471 -1.766697
2008-05-06 08:31:57 51°13.95 2°55.636 20.4358 0.093251 0.477517 -1.801521
2008-05-06 08:32:57 51°13.949 2°55.635 20.4409 0.093251 0.477586 -1.801521
2008-05-06 08:33:57 51°13.949 2°55.632 20.4426 0.093251 0.477663 -1.801521
2008-05-06 08:34:57 51°13.951 2°55.629 20.4484 0.093251 0.477732 -1.766697
2008-05-06 08:35:57 51°13.953 2°55.627 20.4544 0.093251 0.477802 -1.766697
2008-05-06 08:36:57 51°13.954 2°55.624 20.4514 0.093251 0.477871 -1.766697
2008-05-06 08:37:57 51°13.971 2°55.606 20.5365 0.093251 0.477941 -1.766697
2008-05-06 08:38:57 51°14.059 2°55.5 20.3786 0.093251 0.478002 -1.801521
2008-05-06 08:39:57 51°14.172 2°55.374 20.4066 0.093148 0.477509 -1.801521
2008-05-06 08:40:57 51°14.275 2°55.241 20.4177 0.093148 0.477563 -1.766697
2008-05-06 08:41:57 51°14.357 2°55.098 20.458 0.093148 0.477602 -1.801521
2008-05-06 08:42:56 51°14.43 2°54.885 20.3618 0.093148 0.477648 -1.766697
2008-05-06 08:43:57 51°14.511 2°54.579 20.3932 0.093148 0.477717 -1.766697
2008-05-06 08:44:57 51°14.563 2°54.243 20.3744 0.093148 0.477764 -1.801521
2008-05-06 08:45:57 51°14.6 2°53.897 20.3586 0.093148 0.477825 -1.801521
2008-05-06 08:46:57 51°14.623 2°53.557 20.3004 0.093148 0.47791 -1.766697
2008-05-06 08:47:57 51°14.639 2°53.217 20.3302 0.093148 0.477995 -1.766697
2008-05-06 08:48:57 51°14.648 2°52.872 20.2907 0.093148 0.478096 -1.766697
2008-05-06 08:49:57 51°14.636 2°52.522 20.3016 0.093045 0.477649 -1.801521
2008-05-06 08:50:57 51°14.603 2°52.173 20.3135 0.093045 0.477749 -1.801521
2008-05-06 08:51:57 51°14.57 2°51.824 20.293 0.093045 0.477842 -1.801521
2008-05-06 08:52:57 51°14.54 2°51.475 20.2598 0.093045 0.477973 -1.801521
2008-05-06 08:53:57 51°14.508 2°51.245 20.2887 0.093045 0.478097 -1.801521
2008-05-06 08:54:57 51°14.494 2°51.144 20.2988 0.092942 0.477657 -1.801521
2008-05-06 08:55:57 51°14.478 2°51.07 20.3063 0.092942 0.477765 -1.801521
2008-05-06 08:56:57 51°14.461 2°50.974 20.2841 0.092942 0.477858 -1.766697
2008-05-06 08:57:57 51°14.452 2°50.865 20.3051 0.092942 0.477928 -1.766697
2008-05-06 08:58:57 51°14.447 2°50.775 20.3074 0.092839 0.477449 -1.766697
2008-05-06 08:59:57 51°14.442 2°50.699 20.3035 0.092839 0.477511 -1.801521
2008-05-06 09:00:57 51°14.433 2°50.618 20.3115 0.092839 0.477557 -1.801521
2008-05-06 09:01:57 51°14.423 2°50.532 20.3109 0.092839 0.477588 -1.766697
2008-05-06 09:02:57 51°14.414 2°50.446 20.3171 0.092839 0.477658 -1.801521
2008-05-06 09:03:57 51°14.403 2°50.359 20.3119 0.092839 0.477697 -1.766697
2008-05-06 09:04:57 51°14.389 2°50.274 20.3217 0.092736 0.47721 -1.801521
2008-05-06 09:05:57 51°14.374 2°50.19 20.3213 0.092736 0.477279 -1.766697
2008-05-06 09:06:57 51°14.358 2°50.107 20.3217 0.092736 0.477341 -1.801521
2008-05-06 09:07:57 51°14.342 2°50.024 20.3244 0.092736 0.477426 -1.766697
2008-05-06 09:08:57 51°14.323 2°49.941 20.3336 0.092736 0.477504 -1.801521
2008-05-06 09:09:57 51°14.305 2°49.859 20.3311 0.092736 0.477574 -1.766697
2008-05-06 09:10:57 51°14.285 2°49.777 20.3309 0.092736 0.477667 -1.801521
2008-05-06 09:11:57 51°14.264 2°49.696 20.3419 0.092633 0.477179 -1.801521
2008-05-06 09:12:57 51°14.243 2°49.616 20.3409 0.092633 0.477241 -1.766697
2008-05-06 09:13:57 51°14.221 2°49.536 20.3342 0.092633 0.477311 -1.766697
2008-05-06 09:14:57 51°14.199 2°49.457 20.3404 0.092633 0.477358 -1.766697
2008-05-06 09:15:57 51°14.177 2°49.378 20.3452 0.092633 0.477404 -1.766697
2008-05-06 09:16:57 51°14.156 2°49.299 20.3409 0.092633 0.477466 -1.801521
2008-05-06 09:17:57 51°14.135 2°49.22 20.3553 0.092633 0.477536 -1.801521
2008-05-06 09:18:57 51°14.114 2°49.14 20.3548 0.092633 0.477583 -1.801521
2008-05-06 09:19:57 51°14.094 2°49.061 20.3548 0.092633 0.477645 -1.801521
2008-05-06 09:20:57 51°14.074 2°48.982 20.3615 0.09253 0.477165 -1.766697
2008-05-06 09:21:57 51°14.055 2°48.903 20.361 0.09253 0.477235 -1.801521
2008-05-06 09:22:57 51°14.037 2°48.824 20.3558 0.09253 0.477312 -1.766697
2008-05-06 09:23:57 51°14.02 2°48.745 20.3516 0.09253 0.477382 -1.801521
2008-05-06 09:24:57 51°14.004 2°48.667 20.3587 0.09253 0.477452 -1.801521
2008-05-06 09:25:57 51°13.989 2°48.588 20.3614 0.09253 0.477522 -1.766697
2008-05-06 09:26:57 51°13.974 2°48.51 20.3573 0.09253 0.477584 -1.801521
2008-05-06 09:27:57 51°13.96 2°48.434 20.357 0.09253 0.477639 -1.801521
2008-05-06 09:28:57 51°13.952 2°48.361 20.3585 0.09253 0.477701 -1.801521
2008-05-06 09:29:57 51°13.946 2°48.301 20.3642 0.09253 0.477771 -1.766697
2008-05-06 09:30:57 51°13.938 2°48.249 20.3599 0.092427 0.47729 -1.801521
2008-05-06 09:31:57 51°13.928 2°48.202 20.3719 0.092427 0.477345 -1.766697
2008-05-06 09:32:57 51°13.918 2°48.156 20.3698 0.092427 0.477391 -1.766697
2008-05-06 09:33:57 51°13.937 2°48.11 20.3564 0.092427 0.477469 -1.766697
2008-05-06 09:34:57 51°13.957 2°48.138 20.381 0.092427 0.477547 -1.766697
2008-05-06 09:35:57 51°13.959 2°48.215 20.3742 0.092427 0.477633 -1.801521
2008-05-06 09:36:57 51°13.976 2°48.302 20.379 0.092427 0.477719 -1.766697
2008-05-06 09:37:56 51°13.997 2°48.408 20.3846 0.092427 0.477789 -1.801521
2008-05-06 09:38:57 51°14.019 2°48.528 20.3875 0.092427 0.477867 -1.801521
2008-05-06 09:39:56 51°14.041 2°48.658 20.3863 0.092427 0.477937 -1.766697
2008-05-06 09:40:57 51°14.071 2°48.822 20.3914 0.092325 0.477455 -1.766697
2008-05-06 09:41:57 51°14.104 2°49.003 20.3892 0.092325 0.47751 -1.766697
2008-05-06 09:42:57 51°14.14 2°49.193 20.3972 0.092325 0.477588 -1.801521
2008-05-06 09:43:57 51°14.168 2°49.389 20.4005 0.092325 0.477674 -1.766697
2008-05-06 09:44:57 51°14.19 2°49.589 20.3936 0.092325 0.47776 -1.801521
2008-05-06 09:45:57 51°14.212 2°49.791 20.3887 0.092325 0.477838 -1.801521
2008-05-06 09:46:56 51°14.236 2°50.004 20.3976 0.092222 0.477372 -1.801521
2008-05-06 09:47:57 51°14.261 2°50.226 20.4058 0.092222 0.477465 -1.801521
2008-05-06 09:48:56 51°14.288 2°50.442 20.4089 0.092222 0.477543 -1.801521
2008-05-06 09:49:56 51°14.316 2°50.662 20.4023 0.092222 0.477622 -1.801521
2008-05-06 09:50:57 51°14.346 2°50.887 20.4101 0.092222 0.4777 -1.801521
2008-05-06 09:51:56 51°14.377 2°51.106 20.4076 0.092222 0.477786 -1.801521
2008-05-06 09:52:57 51°14.409 2°51.334 20.4188 0.092119 0.477327 -1.766697
2008-05-06 09:53:56 51°14.44 2°51.556 20.4175 0.092119 0.477428 -1.801521
2008-05-06 09:54:57 51°14.472 2°51.789 20.4131 0.092119 0.477522 -1.766697
2008-05-06 09:55:56 51°14.504 2°52.058 20.4174 0.092119 0.477616 -1.766697
2008-05-06 09:56:57 51°14.536 2°52.358 20.4064 0.092119 0.477718 -1.766697
2008-05-06 09:57:57 51°14.556 2°52.658 20.4194 0.092119 0.477804 -1.766697
2008-05-06 09:58:57 51°14.576 2°52.959 20.422 0.092016 0.477337 -1.801521
2008-05-06 09:59:57 51°14.588 2°53.26 20.4175 0.092016 0.477431 -1.801521
2008-05-06 10:00:57 51°14.594 2°53.562 20.4336 0.092016 0.477556 -1.801521
2008-05-06 10:01:57 51°14.583 2°53.865 20.4294 0.092016 0.477658 -1.801521
2008-05-06 10:02:56 51°14.551 2°54.156 20.4247 0.092016 0.477745 -1.766697
2008-05-06 10:03:57 51°14.492 2°54.447 20.4222 0.092016 0.477823 -1.766697
2008-05-06 10:04:56 51°14.43 2°54.714 20.422 0.092016 0.477894 -1.801521
2008-05-06 10:05:57 51°14.363 2°54.979 20.4313 0.091913 0.47741 -1.766697
2008-05-06 10:06:57 51°14.3 2°55.177 20.4339 0.091913 0.477496 -1.801521
2008-05-06 10:07:57 51°14.217 2°55.324 20.4413 0.091913 0.477598 -1.801521
2008-05-06 10:08:57 51°14.113 2°55.433 20.4439 0.091913 0.477677 -1.801521
2008-05-06 10:09:57 51°14.012 2°55.506 20.4659 0.091913 0.477779 -1.801521
2008-05-06 10:10:57 51°13.922 2°55.569 20.4673 0.091913 0.477858 -1.801521
2008-05-06 10:11:57 51°13.842 2°55.628 20.4671 0.091913 0.477929 -1.801521
2008-05-06 10:12:57 51°13.77 2°55.694 20.4852 0.091913 0.477984 -1.801521
2008-05-06 10:13:57 51°13.72 2°55.78 20.4831 0.09181 0.477507 -1.766697
2008-05-06 10:14:57 51°13.687 2°55.874 20.4743 0.09181 0.47757 -1.801521
2008-05-06 10:15:57 51°13.67 2°55.941 20.475 0.09181 0.477633 -1.801521
2008-05-06 10:16:57 51°13.666 2°55.953 20.4915 0.09181 0.477696 -1.766697
2008-05-06 10:17:57 51°13.665 2°55.953 20.4931 0.09181 0.477775 -1.766697
2008-05-06 10:18:57 51°13.666 2°55.954 20.4955 0.09181 0.477838 -1.801521
2008-05-06 10:19:57 51°13.666 2°55.954 20.5019 0.09181 0.477901 -1.801521
2008-05-06 10:20:56 51°13.666 2°55.955 20.4786 0.09181 0.477964 -1.801521
2008-05-06 10:21:57 51°13.666 2°55.955 20.4924 0.09181 0.478011 -1.801521
2008-05-06 10:22:57 51°13.665 2°55.955 20.4995 0.09181 0.478066 -1.801521
2008-05-06 10:23:57 51°13.665 2°55.955 20.5052 0.091707 0.477558 -1.801521
2008-05-06 10:24:57 51°13.666 2°55.955 20.5118 0.091707 0.477613 -1.801521
2008-05-06 10:25:57 51°13.665 2°55.955 20.5133 0.091707 0.47766 -1.801521
2008-05-06 10:26:57 51°13.666 2°55.955 20.5233 0.091707 0.477715 -1.801521
2008-05-06 10:27:56 51°13.666 2°55.954 20.5274 0.091707 0.477763 -1.766697
2008-05-06 10:28:57 51°13.665 2°55.955 20.5344 0.091707 0.47781 -1.766697
2008-05-06 10:29:57 51°13.665 2°55.955 20.5455 0.091707 0.477849 -1.801521
2008-05-06 10:30:57 51°13.665 2°55.955 20.5572 0.091707 0.477889 -1.801521
2008-05-06 10:31:57 51°13.665 2°55.955 20.5582 0.091707 0.477928 -1.801521
2008-05-06 10:32:57 51°13.666 2°55.955 20.5629 0.091707 0.477976 -1.801521
2008-05-06 10:33:57 51°13.666 2°55.955 20.5718 0.091707 0.478007 -1.801521
2008-05-06 10:34:57 51°13.665 2°55.955 20.5769 0.091707 0.478047 -1.801521
2008-05-06 10:35:57 51°13.665 2°55.955 20.5875 0.091707 0.478086 -1.801521
2008-05-06 10:36:56 51°13.666 2°55.956 20.5932 0.091707 0.478126 -1.766697
2008-05-06 10:37:57 51°13.665 2°55.955 20.6017 0.091604 0.477609 -1.766697
2008-05-06 10:38:56 51°13.665 2°55.956 20.6076 0.091604 0.47764 -1.766697
2008-05-06 10:39:57 51°13.665 2°55.955 20.6133 0.091604 0.477672 -1.766697
2008-05-06 10:40:57 51°13.665 2°55.955 20.6183 0.091604 0.477711 -1.801521
2008-05-06 10:41:57 51°13.665 2°55.954 20.6245 0.091604 0.477735 -1.801521
2008-05-06 10:42:57 51°13.665 2°55.954 20.6296 0.091604 0.477767 -1.801521
2008-05-06 10:43:57 51°13.665 2°55.954 20.6357 0.091604 0.477798 -1.766697
2008-05-06 10:44:57 51°13.665 2°55.954 20.6407 0.091604 0.47783 -1.766697
2008-05-06 10:45:57 51°13.665 2°55.955 20.6481 0.091604 0.477853 -1.801521
2008-05-06 10:46:57 51°13.665 2°55.955 20.652 0.091604 0.477885 -1.766697
2008-05-06 10:47:57 51°13.665 2°55.955 20.6597 0.091604 0.477909 -1.801521
2008-05-06 10:48:57 51°13.666 2°55.954 20.6661 0.091604 0.477932 -1.766697
2008-05-06 10:49:57 51°13.666 2°55.955 20.6711 0.091604 0.477956 -1.766697
2008-05-06 10:50:57 51°13.667 2°55.955 20.6719 0.091604 0.47798 -1.766697
2008-05-06 10:51:57 51°13.667 2°55.955 20.6797 0.091604 0.478004 -1.766697
2008-05-06 10:52:57 51°13.666 2°55.955 20.6848 0.091604 0.478027 -1.766697
2008-05-06 10:53:57 51°13.667 2°55.955 20.6951 0.091604 0.478051 -1.801521
2008-05-06 10:54:57 51°13.667 2°55.955 20.7055 0.091604 0.478075 -1.801521
2008-05-06 10:55:57 51°13.667 2°55.956 20.7037 0.091604 0.478099 -1.801521
2008-05-06 10:56:57 51°13.667 2°55.956 20.7126 0.091604 0.478122 -1.801521
2008-05-06 10:57:57 51°13.667 2°55.956 20.7168 0.091604 0.478146 -1.766697
2008-05-06 10:58:57 51°13.666 2°55.954 20.7262 0.091604 0.47817 -1.766697
2008-05-06 10:59:57 51°13.666 2°55.955 20.734 0.091604 0.478193 -1.766697
2008-05-06 11:00:57 51°13.665 2°55.954 20.739 0.091604 0.478217 -1.766697
2008-05-06 11:01:57 51°13.666 2°55.954 20.7539 0.091604 0.478233 -1.766697
2008-05-06 11:02:57 51°13.666 2°55.954 20.7611 0.091604 0.478257 -1.801521
2008-05-06 11:03:57 51°13.666 2°55.955 20.7609 0.091501 0.477723 -1.766697
2008-05-06 11:04:57 51°13.666 2°55.954 20.771 0.091501 0.477739 -1.801521
2008-05-06 11:05:57 51°13.666 2°55.955 20.7727 0.091501 0.477763 -1.766697
2008-05-06 11:06:57 51°13.666 2°55.955 20.7759 0.091501 0.477787 -1.766697
2008-05-06 11:07:57 51°13.666 2°55.954 20.7699 0.091501 0.477802 -1.801521
2008-05-06 11:08:57 51°13.666 2°55.955 20.8078 0.091501 0.477826 -1.801521
2008-05-06 11:09:57 51°13.666 2°55.955 20.7989 0.091501 0.477842 -1.801521
2008-05-06 11:10:57 51°13.666 2°55.955 20.7994 0.091501 0.477858 -1.801521
2008-05-06 11:11:57 51°13.666 2°55.955 20.8021 0.091501 0.477874 -1.766697
2008-05-06 11:12:57 51°13.665 2°55.956 20.8076 0.091501 0.477889 -1.766697
2008-05-06 11:13:57 51°13.666 2°55.956 20.8126 0.091501 0.477905 -1.766697
2008-05-06 11:14:57 51°13.666 2°55.957 20.822 0.091501 0.477921 -1.766697
2008-05-06 11:15:57 51°13.666 2°55.956 20.8226 0.091501 0.477937 -1.766697
2008-05-06 11:16:57 51°13.666 2°55.956 20.8279 0.091501 0.477945 -1.766697
2008-05-06 11:17:57 51°13.665 2°55.956 20.8351 0.091501 0.477961 -1.766697
2008-05-06 11:18:57 51°13.665 2°55.956 20.8382 0.091501 0.477969 -1.766697
2008-05-06 11:19:57 51°13.665 2°55.956 20.8466 0.091501 0.477984 -1.766697
2008-05-06 11:20:57 51°13.666 2°55.956 20.854 0.091501 0.477984 -1.801521
2008-05-06 11:21:57 51°13.665 2°55.956 20.8604 0.091501 0.478 -1.766697
2008-05-06 11:22:57 51°13.665 2°55.956 20.8683 0.091501 0.478008 -1.766697
2008-05-06 11:23:57 51°13.665 2°55.956 20.8694 0.091501 0.478016 -1.801521
2008-05-06 11:24:57 51°13.666 2°55.955 20.874 0.091501 0.478024 -1.801521
2008-05-06 11:25:57 51°13.666 2°55.955 20.8812 0.091501 0.47804 -1.801521
2008-05-06 11:26:57 51°13.665 2°55.954 20.8903 0.091501 0.478048 -1.766697
2008-05-06 11:27:57 51°13.665 2°55.954 20.895 0.091501 0.478056 -1.766697
2008-05-06 11:28:57 51°13.665 2°55.954 20.9029 0.091501 0.478056 -1.766697
2008-05-06 11:29:57 51°13.665 2°55.955 20.9018 0.091501 0.478064 -1.766697
2008-05-06 11:30:57 51°13.665 2°55.954 20.9108 0.091501 0.478071 -1.766697
2008-05-06 11:31:57 51°13.665 2°55.955 20.9122 0.091501 0.478071 -1.801521
2008-05-06 11:32:57 51°13.666 2°55.955 20.9154 0.091501 0.478079 -1.801521
2008-05-06 11:33:57 51°13.665 2°55.954 20.9218 0.091501 0.478087 -1.766697
2008-05-06 11:34:57 51°13.666 2°55.954 20.9428 0.091501 0.478087 -1.801521
2008-05-06 11:35:57 51°13.666 2°55.955 20.9359 0.091501 0.478095 -1.801521
2008-05-06 11:36:57 51°13.666 2°55.954 20.9425 0.091501 0.478095 -1.801521
2008-05-06 11:37:57 51°13.666 2°55.954 20.945 0.091501 0.478095 -1.766697
2008-05-06 11:38:57 51°13.665 2°55.953 20.9581 0.091501 0.478095 -1.766697
2008-05-06 11:39:57 51°13.666 2°55.954 20.956 0.091501 0.478103 -1.766697
2008-05-06 11:40:57 51°13.666 2°55.954 20.963 0.091501 0.478103 -1.801521
2008-05-06 11:41:57 51°13.666 2°55.954 20.9666 0.091501 0.478103 -1.801521
2008-05-06 11:42:57 51°13.666 2°55.955 20.9753 0.091501 0.478103 -1.801521
2008-05-06 11:43:57 51°13.666 2°55.955 20.9724 0.091501 0.478095 -1.766697
2008-05-06 11:44:57 51°13.666 2°55.954 20.9797 0.091501 0.478095 -1.801521
2008-05-06 11:45:57 51°13.666 2°55.954 20.987 0.091501 0.478095 -1.801521
2008-05-06 11:46:57 51°13.666 2°55.955 20.9976 0.091501 0.478087 -1.801521
2008-05-06 11:47:57 51°13.665 2°55.955 20.9998 0.091501 0.478087 -1.766697
2008-05-06 11:48:57 51°13.665 2°55.956 21.0039 0.091501 0.478079 -1.766697
2008-05-06 11:49:57 51°13.665 2°55.956 21.0058 0.091501 0.478079 -1.766697
2008-05-06 11:50:57 51°13.665 2°55.956 21.0309 0.091501 0.478071 -1.766697
2008-05-06 11:51:57 51°13.665 2°55.956 21.0379 0.091604 0.478621 -1.766697
2008-05-06 11:52:57 51°13.665 2°55.957 21.0393 0.091604 0.478613 -1.801521
2008-05-06 11:53:57 51°13.665 2°55.956 21.04 0.091604 0.478621 -1.801521
2008-05-06 11:54:57 51°13.665 2°55.956 21.0448 0.091604 0.478605 -1.766697
2008-05-06 11:55:57 51°13.666 2°55.956 21.0502 0.091604 0.478605 -1.801521
2008-05-06 11:56:57 51°13.665 2°55.955 21.0565 0.091604 0.478589 -1.766697
2008-05-06 11:57:57 51°13.665 2°55.955 21.0599 0.091604 0.478589 -1.766697
2008-05-06 11:58:57 51°13.665 2°55.955 21.0693 0.091604 0.478582 -1.766697
2008-05-06 11:59:57 51°13.665 2°55.956 21.0865 0.091604 0.478574 -1.766697
2008-05-06 12:00:57 51°13.664 2°55.956 21.081 0.091604 0.478566 -1.801521
2008-05-06 12:01:57 51°13.664 2°55.957 21.0911 0.091604 0.47855 -1.801521
2008-05-06 12:02:57 51°13.663 2°55.956 21.097 0.091604 0.478542 -1.766697
2008-05-06 12:03:57 51°13.663 2°55.956 21.0876 0.091604 0.478526 -1.801521
2008-05-06 12:04:57 51°13.663 2°55.955 21.0922 0.091604 0.478518 -1.801521
2008-05-06 12:05:57 51°13.664 2°55.955 21.0972 0.091604 0.478502 -1.801521
2008-05-06 12:06:57 51°13.664 2°55.955 21.1018 0.091604 0.478486 -1.766697
2008-05-06 12:07:57 51°13.665 2°55.955 21.1076 0.091604 0.478486 -1.766697
2008-05-06 12:08:57 51°13.665 2°55.955 21.121 0.091604 0.478478 -1.801521
2008-05-06 12:09:57 51°13.666 2°55.955 21.1231 0.091604 0.478471 -1.801521
2008-05-06 12:10:57 51°13.666 2°55.955 21.1736 0.091604 0.478463 -1.766697
2008-05-06 12:11:57 51°13.666 2°55.954 21.1659 0.091604 0.478463 -1.766697
2008-05-06 12:12:57 51°13.666 2°55.954 21.1524 0.091604 0.478463 -1.766697
2008-05-06 12:13:57 51°13.666 2°55.954 21.1577 0.091604 0.478447 -1.801521
2008-05-06 12:14:57 51°13.68 2°55.92 21.1684 0.091604 0.478447 -1.766697
2008-05-06 12:15:57 51°13.715 2°55.826 21.1812 0.091604 0.478447 -1.766697
2008-05-06 12:16:57 51°13.762 2°55.718 21.2025 0.091604 0.478431 -1.801521
2008-05-06 12:17:57 51°13.825 2°55.634 21.2168 0.091604 0.478439 -1.801521
2008-05-06 12:18:57 51°13.896 2°55.628 21.1883 0.091604 0.478447 -1.766697
2008-05-06 12:19:57 51°13.944 2°55.671 21.1964 0.091604 0.478399 -1.801521
2008-05-06 12:20:57 51°13.951 2°55.655 21.1396 0.091604 0.478431 -1.766697
2008-05-06 12:21:57 51°13.973 2°55.592 21.1791 0.091604 0.478423 -1.801521
2008-05-06 12:22:57 51°14.019 2°55.524 21.1811 0.091604 0.478407 -1.766697
2008-05-06 12:23:57 51°14.082 2°55.464 21.1621 0.091604 0.478399 -1.801521
2008-05-06 12:24:57 51°14.153 2°55.405 21.2188 0.091604 0.478399 -1.801521
2008-05-06 12:25:57 51°14.232 2°55.291 21.171 0.091604 0.478407 -1.801521
2008-05-06 12:26:57 51°14.325 2°55.115 21.1625 0.091604 0.478415 -1.801521
2008-05-06 12:27:57 51°14.419 2°54.913 21.1637 0.091604 0.478455 -1.801521
2008-05-06 12:28:57 51°14.48 2°54.653 21.1453 0.091604 0.478478 -1.801521
2008-05-06 12:29:57 51°14.54 2°54.373 21.1562 0.091604 0.478526 -1.766697
2008-05-06 12:30:57 51°14.589 2°54.089 21.1599 0.091604 0.478574 -1.801521
2008-05-06 12:31:57 51°14.591 2°53.802 21.1575 0.091604 0.478605 -1.766697
2008-05-06 12:32:57 51°14.589 2°53.515 21.1671 0.091604 0.478637 -1.801521
2008-05-06 12:33:57 51°14.586 2°53.225 21.1642 0.091604 0.478669 -1.766697
2008-05-06 12:34:57 51°14.59 2°52.931 21.1727 0.091604 0.478708 -1.766697
2008-05-06 12:35:57 51°14.613 2°52.633 21.1713 0.091604 0.478724 -1.801521
2008-05-06 12:36:57 51°14.654 2°52.337 21.153 0.091604 0.478764 -1.801521
2008-05-06 12:37:57 51°14.703 2°52.046 21.1379 0.091604 0.47878 -1.766697
2008-05-06 12:38:57 51°14.789 2°51.771 21.1556 0.091604 0.47882 -1.801521
2008-05-06 12:39:57 51°14.871 2°51.494 21.1693 0.091604 0.478859 -1.766697
2008-05-06 12:40:57 51°14.951 2°51.219 21.1776 0.091604 0.478883 -1.801521
2008-05-06 12:41:57 51°15.031 2°50.946 21.1743 0.091604 0.478931 -1.801521
2008-05-06 12:42:57 51°15.109 2°50.693 21.1779 0.091501 0.47842 -1.801521
2008-05-06 12:43:57 51°15.134 2°50.587 21.2001 0.091501 0.478492 -1.801521
2008-05-06 12:44:57 51°15.094 2°50.576 21.1786 0.091501 0.478516 -1.766697
2008-05-06 12:45:57 51°15.059 2°50.605 21.1786 0.091501 0.478531 -1.766697
2008-05-06 12:46:57 51°15.001 2°50.607 21.1848 0.091501 0.478579 -1.766697
2008-05-06 12:47:57 51°14.947 2°50.596 21.1872 0.091501 0.478611 -1.801521
2008-05-06 12:48:57 51°14.904 2°50.56 21.1844 0.091501 0.478619 -1.801521
2008-05-06 12:49:57 51°14.87 2°50.509 21.1874 0.091501 0.478643 -1.766697
2008-05-06 12:50:57 51°14.835 2°50.46 21.1828 0.091501 0.478651 -1.766697
2008-05-06 12:51:57 51°14.798 2°50.413 21.183 0.091501 0.478666 -1.766697
2008-05-06 12:52:57 51°14.757 2°50.373 21.1848 0.091501 0.47869 -1.766697
2008-05-06 12:53:57 51°14.713 2°50.34 21.1899 0.091501 0.478706 -1.801521
2008-05-06 12:54:57 51°14.666 2°50.318 21.1966 0.091501 0.478722 -1.766697
2008-05-06 12:55:57 51°14.616 2°50.306 21.1798 0.091501 0.478738 -1.801521
2008-05-06 12:56:57 51°14.562 2°50.306 21.1897 0.091501 0.478746 -1.801521
2008-05-06 12:57:57 51°14.507 2°50.311 21.1874 0.091501 0.478754 -1.766697
2008-05-06 12:58:57 51°14.453 2°50.304 21.1836 0.091501 0.478762 -1.766697
2008-05-06 12:59:57 51°14.402 2°50.278 21.1829 0.091501 0.47877 -1.801521
2008-05-06 13:00:57 51°14.361 2°50.231 21.1796 0.091501 0.478786 -1.801521
2008-05-06 13:01:57 51°14.336 2°50.164 21.1836 0.091501 0.478801 -1.801521
2008-05-06 13:02:57 51°14.325 2°50.087 21.1818 0.091501 0.478817 -1.801521
2008-05-06 13:03:57 51°14.318 2°50.008 21.1708 0.091501 0.478825 -1.766697
2008-05-06 13:04:57 51°14.315 2°49.93 21.1693 0.091501 0.478849 -1.766697
2008-05-06 13:05:57 51°14.313 2°49.851 21.1799 0.091501 0.478857 -1.801521
2008-05-06 13:06:57 51°14.313 2°49.773 21.1623 0.091501 0.478873 -1.801521
2008-05-06 13:07:57 51°14.315 2°49.695 21.175 0.091398 0.478322 -1.766697
2008-05-06 13:08:57 51°14.321 2°49.616 21.1771 0.091398 0.47833 -1.766697
2008-05-06 13:09:57 51°14.331 2°49.537 21.1767 0.091398 0.478338 -1.766697
2008-05-06 13:10:57 51°14.347 2°49.458 21.1765 0.091398 0.478354 -1.801521
2008-05-06 13:11:57 51°14.369 2°49.381 21.18 0.091398 0.478362 -1.766697
2008-05-06 13:12:57 51°14.397 2°49.307 21.1761 0.091398 0.478378 -1.766697
2008-05-06 13:13:57 51°14.43 2°49.236 21.1766 0.091398 0.478394 -1.801521
2008-05-06 13:14:57 51°14.466 2°49.17 21.1802 0.091398 0.47841 -1.766697
2008-05-06 13:15:57 51°14.505 2°49.11 21.1744 0.091398 0.478434 -1.766697
2008-05-06 13:16:57 51°14.547 2°49.05 21.1849 0.091398 0.478457 -1.766697
2008-05-06 13:17:57 51°14.591 2°48.993 21.1847 0.091398 0.478473 -1.766697
2008-05-06 13:18:57 51°14.637 2°48.938 21.1807 0.091398 0.478497 -1.766697
2008-05-06 13:19:57 51°14.689 2°48.897 21.1818 0.091398 0.478521 -1.766697
2008-05-06 13:20:57 51°14.747 2°48.89 21.1878 0.091398 0.478537 -1.766697
2008-05-06 13:21:57 51°14.798 2°48.903 21.1867 0.091398 0.478561 -1.766697
2008-05-06 13:22:57 51°14.825 2°48.92 21.1875 0.091398 0.478593 -1.801521
2008-05-06 13:23:57 51°14.84 2°48.932 21.1893 0.091398 0.478624 -1.766697
2008-05-06 13:24:57 51°14.85 2°48.94 21.1862 0.091398 0.478656 -1.766697
2008-05-06 13:25:57 51°14.856 2°48.949 21.1733 0.091398 0.478696 -1.766697
2008-05-06 13:26:57 51°14.865 2°48.953 21.1675 0.091398 0.478736 -1.766697
2008-05-06 13:27:57 51°14.923 2°48.966 21.1782 0.091398 0.478792 -1.766697
2008-05-06 13:28:57 51°14.963 2°49.097 21.1995 0.091398 0.478839 -1.766697
2008-05-06 13:29:57 51°14.97 2°49.337 21.3175 0.091398 0.478871 -1.766697
2008-05-06 13:30:57 51°14.97 2°49.609 21.2206 0.091398 0.478919 -1.766697
2008-05-06 13:31:57 51°14.963 2°49.887 21.2078 0.091398 0.478975 -1.801521
2008-05-06 13:32:57 51°14.947 2°50.222 21.1919 0.091296 0.478455 -1.766697
2008-05-06 13:33:57 51°14.926 2°50.573 21.1734 0.091296 0.478495 -1.801521
2008-05-06 13:34:57 51°14.905 2°50.923 21.1523 0.091296 0.478543 -1.766697
2008-05-06 13:35:57 51°14.889 2°51.273 21.135 0.091296 0.478583 -1.801521
2008-05-06 13:36:57 51°14.865 2°51.618 21.1269 0.091296 0.478622 -1.766697
2008-05-06 13:37:57 51°14.841 2°51.963 21.1192 0.091296 0.478662 -1.766697
2008-05-06 13:38:57 51°14.822 2°52.308 21.108 0.091296 0.47871 -1.801521
2008-05-06 13:39:57 51°14.804 2°52.652 21.0915 0.091296 0.478758 -1.801521
2008-05-06 13:40:57 51°14.778 2°52.995 21.0796 0.091296 0.478814 -1.801521
2008-05-06 13:41:57 51°14.752 2°53.338 21.0681 0.091296 0.47887 -1.801521
2008-05-06 13:42:57 51°14.728 2°53.678 21.0695 0.091296 0.478917 -1.766697
2008-05-06 13:43:57 51°14.706 2°54.022 21.051 0.091296 0.478973 -1.801521
2008-05-06 13:44:57 51°14.657 2°54.361 21.0586 0.091193 0.478453 -1.801521
2008-05-06 13:45:57 51°14.557 2°54.642 21.0769 0.091193 0.478525 -1.801521
2008-05-06 13:46:57 51°14.449 2°54.873 21.0657 0.091193 0.478589 -1.766697
2008-05-06 13:47:57 51°14.352 2°55.077 21.0496 0.091193 0.478629 -1.766697
2008-05-06 13:48:57 51°14.269 2°55.244 21.0524 0.091193 0.478669 -1.766697
2008-05-06 13:49:57 51°14.186 2°55.375 21.0611 0.091193 0.478748 -1.766697
2008-05-06 13:50:57 51°14.121 2°55.444 21.068 0.091193 0.478804 -1.801521
2008-05-06 13:51:57 51°14.056 2°55.493 21.073 0.091193 0.478844 -1.801521
2008-05-06 13:52:57 51°13.974 2°55.548 21.0833 0.091193 0.478892 -1.801521
2008-05-06 13:53:57 51°13.886 2°55.601 21.0951 0.09109 0.478372 -1.766697
2008-05-06 13:54:57 51°13.812 2°55.644 17.3782 0.09109 0.478411 -1.766697
2008-05-06 13:55:57 51°13.771 2°55.702 17.5798 0.09109 0.478443 -1.766697
2008-05-06 13:56:57 51°13.737 2°55.768 18.2782 0.09109 0.478467 -1.766697
2008-05-06 13:57:57 51°13.704 2°55.834 18.5107 0.09109 0.478507 -1.766697
2008-05-06 13:58:57 51°13.682 2°55.898 18.5529 0.09109 0.478547 -1.766697
2008-05-06 13:59:57 51°13.67 2°55.941 18.6295 0.09109 0.478571 -1.766697